| time (UTC) | temp F | wind direction | speed knots | gust knots | rain 1hr in | rain 24hr in | rain mn in | humidity % | barometer mb |
| 20260510120015 | 62 | 11 | 0.0 | 2.6 | 0.00 | 0.00 | 0.00 | 84 | 1014.7 |
| 20260510115510 | 62 | 11 | 0.9 | 4.3 | 0.00 | 0.00 | 0.00 | 84 | 1014.6 |
| 20260510115014 | 62 | 52 | 2.6 | 4.3 | 0.00 | 0.00 | 0.00 | 83 | 1014.4 |
| 20260510114527 | 62 | 191 | 0.9 | 1.7 | 0.00 | 0.00 | 0.00 | 83 | 1014.4 |
| 20260510114014 | 62 | 197 | 0.0 | 1.7 | 0.00 | 0.00 | 0.00 | 82 | 1014.2 |
| 20260510113508 | 62 | 145 | 0.9 | 1.7 | 0.00 | 0.00 | 0.00 | 82 | 1014.0 |
| 20260510113026 | 62 | 2 | 0.0 | 1.7 | 0.00 | 0.00 | 0.00 | 82 | 1014.0 |
| 20260510112511 | 62 | 9 | 0.9 | 1.7 | 0.00 | 0.00 | 0.00 | 81 | 1013.8 |
| 20260510112009 | 63 | 8 | 0.0 | 1.7 | 0.00 | 0.00 | 0.00 | 81 | 1013.8 |
| 20260510111528 | 63 | 8 | 0.0 | 1.7 | 0.00 | 0.00 | 0.00 | 81 | 1013.6 |
| 20260510111009 | 63 | 8 | 0.0 | 1.7 | 0.00 | 0.00 | 0.00 | 80 | 1013.6 |
| 20260510110510 | 63 | 8 | 0.0 | 2.6 | 0.00 | 0.00 | 0.00 | 80 | 1013.6 |
| 20260510110026 | 63 | 110 | 0.0 | 2.6 | 0.00 | 0.00 | 0.00 | 80 | 1013.5 |
| 20260510105507 | 63 | 110 | 0.0 | 2.6 | 0.00 | 0.00 | 0.00 | 80 | 1013.4 |
| 20260510105018 | 63 | 89 | 0.9 | 2.6 | 0.00 | 0.00 | 0.00 | 79 | 1013.3 |
| 20260510104524 | 63 | 89 | 0.9 | 2.6 | 0.00 | 0.00 | 0.00 | 78 | 1013.4 |
| 20260510104007 | 64 | 89 | 0.9 | 2.6 | 0.00 | 0.00 | 0.00 | 78 | 1013.4 |
| 20260510103510 | 64 | 84 | 0.9 | 1.7 | 0.00 | 0.00 | 0.00 | 78 | 1013.4 |
| 20260510103023 | 64 | 84 | 0.0 | 1.7 | 0.00 | 0.00 | 0.00 | 78 | 1013.4 |
| 20260510102509 | 64 | 84 | 0.9 | 2.6 | 0.00 | 0.00 | 0.00 | 77 | 1013.3 |
| 20260510102004 | 64 | 85 | 0.9 | 2.6 | 0.00 | 0.00 | 0.00 | 77 | 1013.1 |
| 20260510101508 | 64 | 85 | 0.0 | 4.3 | 0.00 | 0.00 | 0.00 | 77 | 1013.1 |
| 20260510101004 | 64 | 85 | 0.9 | 4.3 | 0.00 | 0.00 | 0.00 | 77 | 1013.1 |
| 20260510100504 | 64 | 82 | 0.9 | 4.3 | 0.00 | 0.00 | 0.00 | 76 | 1013.0 |
| 20260510100006 | 64 | 81 | 0.9 | 3.5 | 0.00 | 0.00 | 0.00 | 76 | 1013.1 |
| 20260510095510 | 65 | 78 | 0.9 | 3.5 | 0.00 | 0.00 | 0.00 | 75 | 1013.1 |
| 20260510095006 | 65 | 79 | 1.7 | 3.5 | 0.00 | 0.00 | 0.00 | 75 | 1013.0 |
| 20260510094510 | 65 | 60 | 1.7 | 3.5 | 0.00 | 0.00 | 0.00 | 75 | 1013.0 |
| 20260510094004 | 65 | 65 | 0.9 | 3.5 | 0.00 | 0.00 | 0.00 | 74 | 1012.9 |
| 20260510093504 | 65 | 63 | 1.7 | 4.3 | 0.00 | 0.00 | 0.00 | 74 | 1013.0 |
| 20260510093009 | 65 | 73 | 0.0 | 4.3 | 0.00 | 0.00 | 0.00 | 73 | 1013.1 |
| 20260510092504 | 65 | 50 | 0.9 | 3.5 | 0.00 | 0.00 | 0.00 | 73 | 1013.1 |
| 20260510092004 | 65 | 51 | 1.7 | 3.5 | 0.00 | 0.00 | 0.00 | 72 | 1012.9 |
| 20260510091513 | 65 | 41 | 0.0 | 0.0 | 0.00 | 0.00 | 0.00 | 71 | 1012.8 |
| 20260510091006 | 66 | 40 | 0.0 | 2.6 | 0.00 | 0.00 | 0.00 | 71 | 1012.7 |
| 20260510090504 | 66 | 41 | 0.9 | 3.5 | 0.00 | 0.00 | 0.00 | 71 | 1012.6 |
| 20260510090009 | 66 | 40 | 0.9 | 3.5 | 0.00 | 0.00 | 0.00 | 71 | 1012.3 |
| 20260510085504 | 66 | 36 | 2.6 | 3.5 | 0.00 | 0.00 | 0.00 | 70 | 1012.1 |
| 20260510085004 | 66 | 35 | 0.0 | 1.7 | 0.00 | 0.00 | 0.00 | 69 | 1012.0 |
| 20260510084508 | 67 | 35 | 0.9 | 2.6 | 0.00 | 0.00 | 0.00 | 69 | 1011.9 |
| 20260510084006 | 67 | 35 | 0.9 | 3.5 | 0.00 | 0.00 | 0.00 | 69 | 1011.8 |
| 20260510083506 | 67 | 356 | 0.9 | 4.3 | 0.00 | 0.00 | 0.00 | 68 | 1011.7 |
| 20260510083007 | 67 | 33 | 1.7 | 4.3 | 0.00 | 0.00 | 0.00 | 68 | 1011.4 |
| 20260510082504 | 67 | 4 | 1.7 | 6.1 | 0.00 | 0.00 | 0.00 | 68 | 1011.3 |
| 20260510082004 | 67 | 324 | 0.9 | 6.1 | 0.00 | 0.00 | 0.00 | 67 | 1011.1 |
| 20260510081512 | 67 | 341 | 1.7 | 6.1 | 0.00 | 0.00 | 0.00 | 67 | 1011.1 |
| 20260510081007 | 67 | 335 | 0.9 | 6.1 | 0.00 | 0.00 | 0.00 | 67 | 1010.8 |
| 20260510080505 | 67 | 349 | 1.7 | 7.0 | 0.00 | 0.00 | 0.00 | 67 | 1010.6 |
| 20260510080010 | 67 | 285 | 2.6 | 7.0 | 0.00 | 0.00 | 0.00 | 68 | 1010.6 |
| 20260510075504 | 67 | 358 | 2.6 | 7.8 | 0.00 | 0.00 | 0.00 | 67 | 1009.5 |
| 20260510075005 | 67 | 84 | 1.7 | 8.7 | 0.00 | 0.00 | 0.00 | 67 | 1008.8 |
| 20260510074511 | 67 | 128 | 3.5 | 13.0 | 0.00 | 0.00 | 0.00 | 67 | 1008.7 |
| 20260510074004 | 67 | 129 | 5.2 | 13.9 | 0.00 | 0.00 | 0.00 | 67 | 1008.4 |
| 20260510073503 | 67 | 121 | 7.0 | 13.9 | 0.00 | 0.00 | 0.00 | 68 | 1008.8 |
| 20260510073014 | 67 | 133 | 7.0 | 13.0 | 0.00 | 0.00 | 0.00 | 68 | 1010.3 |
| 20260510072503 | 68 | 226 | 3.5 | 11.3 | 0.00 | 0.00 | 0.00 | 68 | 1011.5 |
| 20260510070012 | 69 | 159 | 7.8 | 13.9 | 0.00 | 0.00 | 0.00 | 63 | 1011.8 |
| 20260510065507 | 69 | 162 | 7.8 | 13.9 | 0.00 | 0.00 | 0.00 | 62 | 1011.9 |
| 20260510065009 | 69 | 177 | 3.5 | 10.4 | 0.00 | 0.00 | 0.00 | 63 | 1013.2 |
| 20260510064531 | 69 | 194 | 3.5 | 12.2 | 0.00 | 0.00 | 0.00 | 64 | 1014.0 |
| 20260510064008 | 69 | 296 | 5.2 | 12.2 | 0.00 | 0.00 | 0.00 | 65 | 1014.3 |
| 20260510063508 | 69 | 218 | 1.7 | 7.0 | 0.00 | 0.00 | 0.00 | 65 | 1013.9 |
| 20260510063014 | 69 | 300 | 1.7 | 7.0 | 0.00 | 0.00 | 0.00 | 65 | 1013.5 |
| 20260510062506 | 69 | 191 | 1.7 | 6.1 | 0.00 | 0.00 | 0.00 | 65 | 1013.4 |
| 20260510062007 | 69 | 141 | 0.9 | 1.7 | 0.00 | 0.00 | 0.00 | 64 | 1013.0 |
| 20260510061516 | 69 | 141 | 0.0 | 1.7 | 0.00 | 0.00 | 0.00 | 63 | 1013.0 |
| 20260510061008 | 69 | 141 | 0.9 | 2.6 | 0.00 | 0.00 | 0.00 | 63 | 1013.1 |
| 20260510060507 | 69 | 141 | 1.7 | 2.6 | 0.00 | 0.00 | 0.00 | 64 | 1013.2 |
| 20260510060018 | 69 | 41 | 0.0 | 3.5 | 0.00 | 0.00 | 0.00 | 64 | 1013.3 |
| 20260510055508 | 69 | 41 | 0.9 | 3.5 | 0.00 | 0.00 | 0.00 | 63 | 1013.4 |
| 20260510055007 | 70 | 27 | 0.9 | 3.5 | 0.00 | 0.00 | 0.00 | 64 | 1013.6 |
| 20260510054518 | 70 | 325 | 0.0 | 2.6 | 0.00 | 0.00 | 0.00 | 63 | 1013.7 |
| 20260510054007 | 70 | 325 | 0.0 | 2.6 | 0.00 | 0.00 | 0.00 | 63 | 1013.8 |
| 20260510053511 | 70 | 323 | 1.7 | 4.3 | 0.00 | 0.00 | 0.00 | 63 | 1013.9 |
| 20260510053037 | 70 | 325 | 1.7 | 4.3 | 0.00 | 0.00 | 0.00 | 63 | 1013.9 |
| 20260510052505 | 70 | 312 | 1.7 | 4.3 | 0.00 | 0.00 | 0.00 | 64 | 1013.9 |
| 20260510052006 | 70 | 329 | 1.7 | 2.6 | 0.00 | 0.00 | 0.00 | 64 | 1013.9 |
| 20260510051523 | 70 | 330 | 0.0 | 3.5 | 0.00 | 0.00 | 0.00 | 64 | 1013.7 |
| 20260510051009 | 69 | 331 | 1.7 | 3.5 | 0.00 | 0.00 | 0.00 | 64 | 1013.6 |
| 20260510050508 | 69 | 326 | 1.7 | 3.5 | 0.00 | 0.00 | 0.00 | 64 | 1013.4 |
| 20260510050017 | 69 | 21 | 0.9 | 2.6 | 0.00 | 0.00 | 0.00 | 64 | 1013.2 |
| 20260510045507 | 69 | 94 | 0.0 | 2.6 | 0.00 | 0.00 | 0.00 | 65 | 1012.8 |
| 20260510045011 | 69 | 130 | 0.0 | 1.7 | 0.00 | 0.00 | 0.00 | 65 | 1012.6 |
| 20260510044514 | 68 | 131 | 0.0 | 1.7 | 0.00 | 0.00 | 0.00 | 65 | 1012.5 |
| 20260510044008 | 68 | 131 | 0.0 | 0.9 | 0.00 | 0.00 | 0.00 | 65 | 1012.4 |
| 20260510043510 | 68 | 131 | 0.0 | 0.0 | 0.00 | 0.00 | 0.00 | 63 | 1012.3 |
| 20260510043023 | 68 | 131 | 0.0 | 0.0 | 0.00 | 0.00 | 0.00 | 64 | 1012.3 |
| 20260510042507 | 68 | 131 | 0.0 | 0.0 | 0.00 | 0.00 | 0.00 | 64 | 1012.2 |
| 20260510042006 | 68 | 131 | 0.0 | 0.0 | 0.00 | 0.00 | 0.00 | 64 | 1012.1 |
| 20260510041520 | 68 | 131 | 0.0 | 0.0 | 0.00 | 0.00 | 0.00 | 65 | 1012.0 |
| 20260510041012 | 68 | 131 | 0.0 | 0.0 | 0.00 | 0.00 | 0.00 | 65 | 1012.0 |
| 20260510040507 | 68 | 131 | 0.0 | 0.0 | 0.00 | 0.00 | 0.00 | 64 | 1012.0 |
| 20260510040022 | 68 | 131 | 0.0 | 0.0 | 0.00 | 0.00 | 0.00 | 64 | 1011.9 |
| 20260510035507 | 68 | 131 | 0.0 | 0.9 | 0.00 | 0.00 | 0.00 | 63 | 1011.9 |
| 20260510035010 | 68 | 131 | 0.0 | 0.9 | 0.00 | 0.00 | 0.00 | 63 | 1011.8 |
| 20260510034522 | 68 | 131 | 0.0 | 1.7 | 0.00 | 0.00 | 0.00 | 62 | 1011.7 |
| 20260510034010 | 68 | 131 | 0.0 | 1.7 | 0.00 | 0.00 | 0.00 | 62 | 1011.8 |
| 20260510033508 | 69 | 131 | 0.0 | 1.7 | 0.00 | 0.01 | 0.00 | 62 | 1011.8 |
| 20260510032507 | 69 | 131 | 0.0 | 0.9 | 0.00 | 0.01 | 0.00 | 62 | 1011.9 |
| 20260510032017 | 69 | 131 | 0.0 | 0.9 | 0.00 | 0.01 | 0.00 | 61 | 1011.9 |
| 20260510031528 | 69 | 131 | 0.0 | 0.9 | 0.00 | 0.01 | 0.00 | 60 | 1011.8 |
| 20260510031010 | 69 | 131 | 0.9 | 0.9 | 0.00 | 0.01 | 0.00 | 60 | 1011.8 |
| 20260510030510 | 69 | 131 | 0.0 | 0.9 | 0.00 | 0.01 | 0.00 | 60 | 1011.9 |
| 20260510030020 | 69 | 131 | 0.0 | 0.9 | 0.00 | 0.01 | 0.00 | 59 | 1011.8 |
| 20260510025507 | 69 | 131 | 0.0 | 0.9 | 0.00 | 0.01 | 0.00 | 59 | 1011.7 |
| 20260510025012 | 70 | 131 | 0.0 | 0.9 | 0.00 | 0.01 | 0.00 | 58 | 1011.7 |
| 20260510024525 | 70 | 131 | 0.0 | 1.7 | 0.00 | 0.01 | 0.00 | 58 | 1011.4 |
| 20260510024010 | 70 | 131 | 0.0 | 1.7 | 0.00 | 0.01 | 0.00 | 58 | 1011.2 |
| 20260510023507 | 70 | 131 | 0.0 | 1.7 | 0.00 | 0.01 | 0.00 | 56 | 1011.0 |
| 20260510023024 | 70 | 131 | 0.0 | 1.7 | 0.00 | 0.01 | 0.00 | 55 | 1010.7 |
| 20260510022510 | 71 | 131 | 0.0 | 1.7 | 0.00 | 0.01 | 0.00 | 54 | 1010.5 |
| 20260510022007 | 71 | 131 | 0.0 | 1.7 | 0.00 | 0.01 | 0.00 | 54 | 1010.3 |
| 20260510021529 | 71 | 131 | 0.0 | 1.7 | 0.00 | 0.01 | 0.00 | 53 | 1010.2 |
| 20260510021011 | 72 | 131 | 0.0 | 1.7 | 0.00 | 0.01 | 0.00 | 52 | 1010.1 |
| 20260510020510 | 72 | 131 | 0.0 | 1.7 | 0.00 | 0.01 | 0.00 | 51 | 1010.0 |
| 20260510020029 | 72 | 131 | 0.0 | 1.7 | 0.00 | 0.01 | 0.00 | 50 | 1009.9 |
| 20260510015508 | 72 | 131 | 0.0 | 1.7 | 0.00 | 0.01 | 0.00 | 49 | 1009.8 |
| 20260510015008 | 73 | 131 | 0.0 | 1.7 | 0.00 | 0.01 | 0.00 | 49 | 1009.7 |
| 20260510014504 | 73 | 131 | 0.0 | 1.7 | 0.00 | 0.01 | 0.00 | 48 | 1009.6 |
| 20260510014007 | 74 | 131 | 0.0 | 1.7 | 0.00 | 0.01 | 0.00 | 48 | 1009.7 |
| 20260510013510 | 74 | 131 | 0.0 | 1.7 | 0.00 | 0.01 | 0.00 | 47 | 1009.6 |
| 20260510013008 | 75 | 131 | 0.0 | 1.7 | 0.00 | 0.01 | 0.00 | 47 | 1009.5 |
| 20260510012505 | 75 | 131 | 0.0 | 1.7 | 0.00 | 0.01 | 0.00 | 46 | 1009.4 |
| 20260510012007 | 76 | 131 | 0.0 | 1.7 | 0.00 | 0.01 | 0.00 | 44 | 1009.3 |
| 20260510011522 | 76 | 131 | 0.0 | 1.7 | 0.00 | 0.01 | 0.00 | 44 | 1009.2 |
| 20260510011007 | 77 | 131 | 0.0 | 2.6 | 0.00 | 0.01 | 0.00 | 43 | 1009.3 |
| 20260510010505 | 77 | 130 | 0.0 | 2.6 | 0.00 | 0.01 | 0.00 | 42 | 1009.2 |
| 20260510010021 | 77 | 130 | 0.9 | 3.5 | 0.00 | 0.01 | 0.00 | 42 | 1009.2 |
| 20260510005507 | 78 | 151 | 0.9 | 3.5 | 0.00 | 0.01 | 0.00 | 41 | 1009.1 |
| 20260510005005 | 78 | 129 | 0.9 | 4.3 | 0.00 | 0.01 | 0.00 | 41 | 1009.1 |
| 20260510004524 | 78 | 137 | 0.9 | 5.2 | 0.00 | 0.01 | 0.00 | 42 | 1009.0 |
| 20260510004004 | 79 | 137 | 1.7 | 5.2 | 0.00 | 0.10 | 0.00 | 42 | 1009.0 |
| 20260510003508 | 79 | 91 | 1.7 | 4.3 | 0.00 | 0.16 | 0.00 | 43 | 1008.9 |
| 20260510003014 | 79 | 126 | 0.9 | 4.3 | 0.00 | 0.16 | 0.00 | 43 | 1008.9 |
| 20260510002505 | 79 | 137 | 3.5 | 4.3 | 0.00 | 0.16 | 0.00 | 42 | 1008.8 |
| 20260510002007 | 80 | 150 | 1.7 | 6.1 | 0.00 | 0.17 | 0.00 | 43 | 1008.9 |
| 20260510001512 | 80 | 116 | 2.6 | 6.1 | 0.00 | 0.18 | 0.00 | 42 | 1008.9 |
| 20260510001004 | 80 | 133 | 0.9 | 7.8 | 0.00 | 0.20 | 0.00 | 42 | 1008.9 |
| 20260510000507 | 80 | 151 | 1.7 | 7.8 | 0.00 | 0.26 | 0.00 | 41 | 1008.9 |
| 20260510000011 | 80 | 122 | 3.5 | 7.0 | 0.00 | 0.47 | 0.00 | 41 | 1008.9 |
| 20260509235509 | 81 | 142 | 3.5 | 7.8 | 0.00 | 0.50 | 0.00 | 41 | 1008.9 |
| 20260509235009 | 81 | 125 | 3.5 | 7.8 | 0.00 | 0.50 | 0.00 | 41 | 1009.0 |
| 20260509234507 | 81 | 96 | 1.7 | 5.2 | 0.00 | 0.55 | 0.00 | 40 | 1009.0 |
| 20260509234009 | 81 | 135 | 2.6 | 6.1 | 0.00 | 0.60 | 0.00 | 39 | 1009.1 |
| 20260509233509 | 81 | 115 | 2.6 | 6.1 | 0.00 | 0.60 | 0.00 | 38 | 1009.1 |
| 20260509233007 | 81 | 129 | 1.7 | 7.0 | 0.00 | 0.60 | 0.00 | 37 | 1009.1 |
| 20260509232507 | 82 | 129 | 3.5 | 8.7 | 0.00 | 0.60 | 0.00 | 35 | 1009.1 |
| 20260509232005 | 82 | 137 | 5.2 | 8.7 | 0.00 | 0.60 | 0.00 | 34 | 1009.2 |
| 20260509231523 | 82 | 174 | 5.2 | 8.7 | 0.00 | 0.60 | 0.00 | 32 | 1009.2 |
| 20260509231006 | 83 | 110 | 2.6 | 7.8 | 0.00 | 0.60 | 0.00 | 31 | 1009.2 |
| 20260509230504 | 83 | 102 | 3.5 | 10.4 | 0.00 | 0.60 | 0.00 | 30 | 1009.3 |
| 20260509230022 | 83 | 123 | 3.5 | 10.4 | 0.00 | 0.60 | 0.00 | 32 | 1009.3 |
| 20260509225507 | 84 | 104 | 2.6 | 9.6 | 0.00 | 0.60 | 0.00 | 32 | 1009.4 |
| 20260509225003 | 84 | 66 | 1.7 | 9.6 | 0.00 | 0.60 | 0.00 | 31 | 1009.4 |
| 20260509224520 | 84 | 106 | 3.5 | 7.8 | 0.00 | 0.60 | 0.00 | 29 | 1009.4 |
| 20260509224007 | 84 | 95 | 3.5 | 9.6 | 0.00 | 0.60 | 0.00 | 28 | 1009.4 |
| 20260509223512 | 85 | 101 | 5.2 | 9.6 | 0.00 | 0.60 | 0.00 | 30 | 1009.4 |
| 20260509223018 | 84 | 179 | 2.6 | 12.2 | 0.00 | 0.60 | 0.00 | 32 | 1009.3 |
| 20260509222503 | 84 | 139 | 1.7 | 12.2 | 0.00 | 0.60 | 0.00 | 31 | 1009.4 |
| 20260509222010 | 84 | 74 | 4.3 | 9.6 | 0.00 | 0.60 | 0.00 | 31 | 1009.5 |
| 20260509221517 | 85 | 58 | 2.6 | 8.7 | 0.00 | 0.60 | 0.00 | 33 | 1009.5 |
| 20260509221005 | 85 | 73 | 2.6 | 10.4 | 0.00 | 0.60 | 0.00 | 34 | 1009.5 |
| 20260509220507 | 85 | 92 | 5.2 | 10.4 | 0.00 | 0.60 | 0.00 | 29 | 1009.6 |
| 20260509220012 | 85 | 103 | 1.7 | 9.6 | 0.00 | 0.60 | 0.00 | 34 | 1009.5 |
| 20260509215511 | 85 | 129 | 5.2 | 9.6 | 0.00 | 0.60 | 0.00 | 31 | 1009.6 |
| 20260509215008 | 84 | 159 | 0.9 | 9.6 | 0.00 | 0.60 | 0.00 | 34 | 1009.6 |
| 20260509214512 | 84 | 48 | 2.6 | 8.7 | 0.00 | 0.60 | 0.00 | 36 | 1009.6 |
| 20260509214007 | 84 | 117 | 4.3 | 7.8 | 0.00 | 0.60 | 0.00 | 37 | 1009.7 |
| 20260509213507 | 84 | 106 | 1.7 | 8.7 | 0.00 | 0.60 | 0.00 | 41 | 1009.6 |
| 20260509213012 | 84 | 162 | 3.5 | 8.7 | 0.00 | 0.60 | 0.00 | 35 | 1009.8 |
| 20260509212508 | 84 | 130 | 4.3 | 8.7 | 0.00 | 0.60 | 0.00 | 37 | 1009.8 |
| 20260509212007 | 84 | 84 | 3.5 | 8.7 | 0.00 | 0.60 | 0.00 | 40 | 1009.9 |
| 20260509211527 | 83 | 140 | 4.3 | 8.7 | 0.00 | 0.60 | 0.00 | 39 | 1010.0 |
| 20260509211010 | 84 | 131 | 3.5 | 7.8 | 0.00 | 0.60 | 0.00 | 41 | 1010.1 |
| 20260509210506 | 84 | 81 | 2.6 | 7.8 | 0.00 | 0.60 | 0.00 | 41 | 1010.1 |
| 20260509210024 | 84 | 71 | 1.7 | 7.8 | 0.00 | 0.60 | 0.00 | 41 | 1010.2 |
| 20260509205509 | 84 | 29 | 3.5 | 7.8 | 0.00 | 0.60 | 0.00 | 34 | 1010.3 |
| 20260509205009 | 84 | 66 | 5.2 | 7.8 | 0.00 | 0.60 | 0.00 | 38 | 1010.3 |
| 20260509204525 | 85 | 75 | 3.5 | 6.1 | 0.00 | 0.60 | 0.00 | 35 | 1010.4 |
| 20260509204011 | 84 | 185 | 3.5 | 7.0 | 0.00 | 0.60 | 0.00 | 30 | 1010.4 |
| 20260509203516 | 84 | 80 | 3.5 | 7.0 | 0.00 | 0.60 | 0.00 | 30 | 1010.4 |
| 20260509203030 | 84 | 155 | 3.5 | 10.4 | 0.00 | 0.60 | 0.00 | 29 | 1010.5 |
| 20260509202507 | 84 | 76 | 6.1 | 10.4 | 0.00 | 0.60 | 0.00 | 36 | 1010.4 |
| 20260509202011 | 83 | 103 | 2.6 | 8.7 | 0.00 | 0.60 | 0.00 | 31 | 1010.4 |
| 20260509201518 | 84 | 195 | 2.6 | 7.0 | 0.00 | 0.60 | 0.00 | 34 | 1010.4 |
| 20260509201010 | 84 | 119 | 4.3 | 7.0 | 0.00 | 0.60 | 0.00 | 32 | 1010.6 |
| 20260509200515 | 84 | 149 | 1.7 | 7.0 | 0.00 | 0.60 | 0.00 | 32 | 1010.6 |
| 20260509200016 | 84 | 149 | 3.5 | 7.0 | 0.00 | 0.60 | 0.00 | 32 | 1010.7 |
| 20260509195511 | 84 | 115 | 0.9 | 6.1 | 0.00 | 0.60 | 0.00 | 37 | 1010.9 |
| 20260509195006 | 84 | 182 | 3.5 | 6.1 | 0.00 | 0.60 | 0.00 | 36 | 1010.8 |
| 20260509194515 | 84 | 156 | 2.6 | 5.2 | 0.00 | 0.60 | 0.00 | 36 | 1010.9 |
| 20260509194002 | 83 | 158 | 0.9 | 5.2 | 0.00 | 0.60 | 0.00 | 38 | 1011.0 |
| 20260509193507 | 83 | 179 | 1.7 | 7.8 | 0.00 | 0.60 | 0.00 | 36 | 1011.1 |
| 20260509193013 | 83 | 116 | 2.6 | 7.8 | 0.00 | 0.60 | 0.00 | 33 | 1011.1 |
| 20260509192503 | 83 | 92 | 4.3 | 7.8 | 0.00 | 0.60 | 0.00 | 28 | 1011.2 |
| 20260509192007 | 83 | 124 | 3.5 | 7.8 | 0.00 | 0.60 | 0.00 | 30 | 1011.2 |
| 20260509191510 | 83 | 99 | 0.9 | 7.0 | 0.00 | 0.60 | 0.00 | 32 | 1011.1 |
| 20260509191007 | 83 | 122 | 1.7 | 7.0 | 0.00 | 0.60 | 0.00 | 40 | 1011.1 |
| 20260509190507 | 82 | 123 | 1.7 | 7.8 | 0.00 | 0.60 | 0.00 | 39 | 1011.1 |
| 20260509190006 | 82 | 156 | 2.6 | 7.8 | 0.00 | 0.60 | 0.00 | 36 | 1011.1 |
| 20260509185503 | 82 | 129 | 0.9 | 5.2 | 0.00 | 0.60 | 0.00 | 43 | 1011.1 |
| 20260509185007 | 81 | 196 | 0.9 | 6.1 | 0.00 | 0.60 | 0.00 | 46 | 1011.1 |
| 20260509184509 | 81 | 196 | 1.7 | 6.1 | 0.00 | 0.60 | 0.00 | 42 | 1011.2 |
| 20260509184008 | 81 | 155 | 3.5 | 6.1 | 0.00 | 0.60 | 0.00 | 46 | 1011.2 |
| 20260509183507 | 82 | 212 | 1.7 | 6.1 | 0.00 | 0.60 | 0.00 | 46 | 1011.2 |
| 20260509183004 | 81 | 101 | 3.5 | 6.1 | 0.00 | 0.60 | 0.00 | 41 | 1011.3 |
| 20260509182506 | 81 | 127 | 2.6 | 6.1 | 0.00 | 0.60 | 0.00 | 47 | 1011.4 |
| 20260509182010 | 81 | 108 | 3.5 | 7.0 | 0.00 | 0.60 | 0.00 | 48 | 1011.4 |
| 20260509181504 | 80 | 131 | 1.7 | 7.0 | 0.00 | 0.60 | 0.00 | 52 | 1011.4 |
| 20260509181008 | 81 | 230 | 2.6 | 7.0 | 0.00 | 0.60 | 0.00 | 52 | 1011.4 |
| 20260509180506 | 81 | 139 | 1.7 | 6.1 | 0.00 | 0.60 | 0.00 | 54 | 1011.4 |
| 20260509180021 | 80 | 168 | 0.9 | 6.1 | 0.00 | 0.60 | 0.00 | 47 | 1011.5 |
| 20260509175504 | 80 | 142 | 2.6 | 6.1 | 0.00 | 0.60 | 0.00 | 51 | 1011.6 |
| 20260509175004 | 79 | 98 | 1.7 | 6.1 | 0.00 | 0.60 | 0.00 | 52 | 1011.7 |
| 20260509174541 | 79 | 156 | 0.9 | 6.1 | 0.00 | 0.60 | 0.00 | 52 | 1011.7 |
| 20260509174007 | 78 | 200 | 1.7 | 6.1 | 0.00 | 0.60 | 0.00 | 52 | 1011.8 |
| 20260509173504 | 79 | 152 | 1.7 | 5.2 | 0.00 | 0.60 | 0.00 | 56 | 1011.8 |
| 20260509173016 | 78 | 206 | 1.7 | 9.6 | 0.00 | 0.60 | 0.00 | 51 | 1011.8 |
| 20260509172510 | 77 | 178 | 0.9 | 9.6 | 0.00 | 0.60 | 0.00 | 53 | 1011.9 |
| 20260509172011 | 77 | 195 | 3.5 | 6.1 | 0.00 | 0.60 | 0.00 | 56 | 1012.0 |
| 20260509171510 | 77 | 230 | 1.7 | 6.1 | 0.00 | 0.60 | 0.00 | 63 | 1012.1 |
| 20260509171010 | 77 | 147 | 1.7 | 6.1 | 0.00 | 0.60 | 0.00 | 60 | 1012.2 |
| 20260509170507 | 77 | 177 | 0.9 | 4.3 | 0.00 | 0.60 | 0.00 | 63 | 1012.1 |
| 20260509170012 | 76 | 126 | 1.7 | 4.3 | 0.00 | 0.60 | 0.00 | 66 | 1012.1 |
| 20260509165504 | 75 | 181 | 1.7 | 4.3 | 0.00 | 0.60 | 0.00 | 69 | 1012.1 |
| 20260509165009 | 76 | 160 | 1.7 | 7.8 | 0.00 | 0.60 | 0.00 | 67 | 1012.3 |
| 20260509164509 | 75 | 153 | 0.9 | 7.8 | 0.00 | 0.60 | 0.00 | 67 | 1012.3 |
| 20260509164011 | 74 | 165 | 4.3 | 7.8 | 0.00 | 0.60 | 0.00 | 68 | 1012.2 |
| 20260509163504 | 74 | 171 | 1.7 | 7.0 | 0.00 | 0.60 | 0.00 | 69 | 1012.2 |
| 20260509163006 | 74 | 146 | 1.7 | 7.0 | 0.00 | 0.60 | 0.00 | 69 | 1012.2 |
| 20260509162513 | 74 | 175 | 1.7 | 6.1 | 0.00 | 0.60 | 0.00 | 71 | 1012.2 |
| 20260509162004 | 74 | 185 | 1.7 | 5.2 | 0.00 | 0.60 | 0.00 | 71 | 1012.1 |
| 20260509161503 | 74 | 165 | 1.7 | 5.2 | 0.00 | 0.60 | 0.00 | 71 | 1012.0 |
| 20260509161012 | 73 | 160 | 3.5 | 4.3 | 0.00 | 0.60 | 0.00 | 70 | 1012.1 |
| 20260509160507 | 73 | 155 | 1.7 | 3.5 | 0.00 | 0.60 | 0.00 | 72 | 1012.0 |
| 20260509160022 | 72 | 187 | 2.6 | 3.5 | 0.00 | 0.60 | 0.00 | 75 | 1012.0 |
| 20260509155504 | 72 | 137 | 1.7 | 3.5 | 0.00 | 0.60 | 0.00 | 76 | 1012.0 |
| 20260509155004 | 71 | 201 | 1.7 | 3.5 | 0.00 | 0.60 | 0.00 | 77 | 1011.9 |
| 20260509154519 | 71 | 174 | 1.7 | 2.6 | 0.00 | 0.60 | 0.00 | 80 | 1011.9 |
| 20260509154010 | 71 | 203 | 1.7 | 2.6 | 0.00 | 0.60 | 0.00 | 77 | 1011.9 |
| 20260509153505 | 71 | 165 | 0.9 | 2.6 | 0.00 | 0.60 | 0.00 | 78 | 1011.8 |
| 20260509153033 | 70 | 176 | 0.9 | 3.5 | 0.00 | 0.60 | 0.00 | 78 | 1011.8 |
| 20260509152505 | 70 | 162 | 0.9 | 3.5 | 0.00 | 0.60 | 0.00 | 80 | 1011.9 |
| 20260509152013 | 69 | 164 | 1.7 | 6.1 | 0.00 | 0.60 | 0.00 | 80 | 1011.9 |
| 20260509151518 | 69 | 123 | 0.9 | 6.1 | 0.00 | 0.60 | 0.00 | 80 | 1011.9 |
| 20260509151003 | 68 | 158 | 1.7 | 5.2 | 0.00 | 0.60 | 0.00 | 84 | 1012.0 |
| 20260509150511 | 67 | 167 | 0.9 | 2.6 | 0.00 | 0.60 | 0.00 | 83 | 1012.0 |
| 20260509150022 | 67 | 170 | 0.0 | 2.6 | 0.00 | 0.60 | 0.00 | 84 | 1011.9 |
| 20260509145503 | 66 | 189 | 0.0 | 2.6 | 0.00 | 0.60 | 0.00 | 85 | 1011.9 |
| 20260509145007 | 66 | 178 | 0.9 | 3.5 | 0.00 | 0.60 | 0.00 | 86 | 1012.0 |
| 20260509144512 | 65 | 185 | 0.9 | 3.5 | 0.00 | 0.60 | 0.00 | 87 | 1011.9 |
| 20260509144008 | 65 | 199 | 2.6 | 3.5 | 0.00 | 0.60 | 0.00 | 88 | 1011.9 |
| 20260509143508 | 65 | 148 | 0.9 | 3.5 | 0.00 | 0.60 | 0.00 | 90 | 1011.9 |
| 20260509143010 | 64 | 149 | 1.7 | 5.2 | 0.00 | 0.60 | 0.00 | 91 | 1011.9 |
| 20260509142507 | 64 | 206 | 2.6 | 5.2 | 0.00 | 0.60 | 0.00 | 91 | 1011.9 |
| 20260509142007 | 64 | 156 | 0.9 | 4.3 | 0.00 | 0.60 | 0.00 | 92 | 1011.9 |
| 20260509141526 | 64 | 169 | 1.7 | 4.3 | 0.00 | 0.60 | 0.00 | 93 | 1012.0 |
| 20260509141011 | 63 | 176 | 0.9 | 2.6 | 0.00 | 0.60 | 0.00 | 93 | 1011.9 |
| 20260509140507 | 63 | 188 | 0.9 | 2.6 | 0.00 | 0.60 | 0.00 | 93 | 1011.9 |
| 20260509140033 | 62 | 194 | 0.9 | 1.7 | 0.00 | 0.60 | 0.00 | 94 | 1011.9 |
| 20260509135508 | 62 | 202 | 0.9 | 1.7 | 0.00 | 0.60 | 0.00 | 94 | 1011.8 |
| 20260509135009 | 61 | 203 | 0.9 | 1.7 | 0.00 | 0.60 | 0.00 | 94 | 1011.8 |
| 20260509134523 | 61 | 203 | 0.0 | 2.6 | 0.00 | 0.60 | 0.00 | 94 | 1011.7 |
| 20260509134006 | 61 | 204 | 0.0 | 3.5 | 0.00 | 0.60 | 0.00 | 94 | 1011.5 |
| 20260509133507 | 61 | 158 | 0.0 | 3.5 | 0.00 | 0.60 | 0.00 | 94 | 1011.3 |
| 20260509133022 | 60 | 164 | 1.7 | 3.5 | 0.00 | 0.60 | 0.00 | 94 | 1011.2 |
| 20260509132508 | 60 | 81 | 0.9 | 1.7 | 0.00 | 0.60 | 0.00 | 94 | 1011.1 |
| 20260509132011 | 60 | 81 | 0.9 | 1.7 | 0.00 | 0.60 | 0.00 | 94 | 1011.1 |
| 20260509131523 | 59 | 150 | 0.0 | 1.7 | 0.00 | 0.60 | 0.00 | 94 | 1011.1 |
| 20260509131007 | 58 | 53 | 0.0 | 0.0 | 0.00 | 0.60 | 0.00 | 94 | 1011.1 |
| 20260509130507 | 58 | 73 | 0.0 | 0.0 | 0.00 | 0.60 | 0.00 | 94 | 1011.1 |
| 20260509130016 | 57 | 73 | 0.0 | 0.0 | 0.00 | 0.60 | 0.00 | 94 | 1011.2 |
| 20260509125516 | 57 | 100 | 0.0 | 0.9 | 0.00 | 0.60 | 0.00 | 94 | 1011.1 |
| 20260509125007 | 56 | 215 | 0.0 | 1.7 | 0.00 | 0.60 | 0.00 | 94 | 1010.9 |
| 20260509124515 | 56 | 215 | 0.0 | 1.7 | 0.00 | 0.60 | 0.00 | 94 | 1010.9 |
| 20260509124007 | 56 | 192 | 0.0 | 0.0 | 0.00 | 0.60 | 0.00 | 94 | 1010.9 |
| 20260509123507 | 55 | 192 | 0.0 | 1.7 | 0.00 | 0.60 | 0.00 | 93 | 1010.9 |
| 20260509123012 | 55 | 192 | 0.0 | 1.7 | 0.00 | 0.60 | 0.00 | 93 | 1010.9 |
| 20260509122510 | 54 | 192 | 0.0 | 1.7 | 0.00 | 0.60 | 0.00 | 93 | 1010.8 |
| 20260509122006 | 54 | 192 | 0.9 | 1.7 | 0.00 | 0.60 | 0.00 | 93 | 1010.9 |
| 20260509121528 | 54 | 226 | 0.0 | 1.7 | 0.00 | 0.60 | 0.00 | 93 | 1010.8 |
| 20260509121012 | 53 | 226 | 0.0 | 0.0 | 0.00 | 0.60 | 0.00 | 93 | 1010.8 |
| 20260509120507 | 53 | 226 | 0.0 | 0.0 | 0.00 | 0.60 | 0.00 | 93 | 1010.7 |